TimeMST,TemperatureF,Dew PointF,Humidity,Sea Level PressureIn,VisibilityMPH,Wind Direction,Wind SpeedMPH,Gust SpeedMPH,PrecipitationIn,Events,Conditions,WindDirDegrees,DateUTC
12:53 AM,37.0,15.1,41,29.76,10.0,ESE,13.8,-,N/A,,Clear,120,2013-02-20 07:53:00
1:53 AM,33.1,15.1,48,29.75,10.0,East,18.4,-,N/A,,Clear,100,2013-02-20 08:53:00
2:53 AM,32.0,15.1,50,29.72,10.0,East,17.3,-,N/A,,Clear,100,2013-02-20 09:53:00
3:53 AM,30.9,17.1,57,29.71,10.0,East,17.3,-,N/A,,Partly Cloudy,100,2013-02-20 10:53:00
4:53 AM,30.9,18.0,59,29.71,10.0,East,12.7,-,N/A,,Mostly Cloudy,90,2013-02-20 11:53:00
5:53 AM,30.0,19.0,64,29.73,10.0,East,12.7,-,N/A,,Mostly Cloudy,80,2013-02-20 12:53:00
6:53 AM,33.1,27.0,78,29.72,10.0,East,13.8,-,N/A,,Clear,100,2013-02-20 13:53:00
7:53 AM,34.0,28.9,82,29.72,10.0,East,15.0,-,N/A,,Scattered Clouds,90,2013-02-20 14:53:00
8:27 AM,33.8,28.4,81,29.71,10.0,East,20.7,-,N/A,,Scattered Clouds,90,2013-02-20 15:27:00
8:36 AM,35.6,30.2,81,29.71,10.0,East,18.4,-,N/A,,Mostly Cloudy,90,2013-02-20 15:36:00
8:53 AM,34.0,28.9,82,29.72,10.0,East,19.6,-,N/A,,Overcast,90,2013-02-20 15:53:00
9:53 AM,34.0,30.9,89,29.70,6.0,East,16.1,-,0.00,Snow,Light Snow,80,2013-02-20 16:53:00
10:06 AM,33.8,32.0,93,29.71,5.0,East,17.3,-,0.00,Snow,Light Snow,80,2013-02-20 17:06:00
10:53 AM,35.1,32.0,89,29.67,10.0,ENE,17.3,-,0.00,,Overcast,70,2013-02-20 17:53:00
11:53 AM,39.9,34.0,79,29.64,10.0,East,12.7,-,N/A,,Overcast,80,2013-02-20 18:53:00
12:43 PM,42.8,35.6,76,29.62,10.0,NE,8.1,-,N/A,,Overcast,50,2013-02-20 19:43:00
1:53 PM,48.0,36.0,63,29.53,10.0,NNE,8.1,-,N/A,,Mostly Cloudy,30,2013-02-20 20:53:00
2:31 PM,44.6,33.8,66,29.56,10.0,South,26.5,36.8,N/A,,Overcast,170,2013-02-20 21:31:00
2:38 PM,44.6,33.8,66,29.56,10.0,South,24.2,34.5,N/A,,Overcast,170,2013-02-20 21:38:00
2:53 PM,44.1,36.0,73,29.55,7.0,SSE,23.0,29.9,0.00,Rain,Light Rain,160,2013-02-20 21:53:00
3:22 PM,44.6,33.8,66,29.56,10.0,SSE,25.3,34.5,0.00,,Mostly Cloudy,160,2013-02-20 22:22:00
3:51 PM,44.6,33.8,66,29.56,10.0,SSE,20.7,-,0.00,,Mostly Cloudy,160,2013-02-20 22:51:00
3:53 PM,44.1,34.0,68,29.55,10.0,SSE,19.6,-,0.00,,Mostly Cloudy,150,2013-02-20 22:53:00
4:17 PM,44.6,33.8,66,29.56,10.0,SSE,19.6,26.5,N/A,,Overcast,150,2013-02-20 23:17:00
4:29 PM,44.6,32.0,61,29.57,10.0,SSE,18.4,31.1,N/A,,Overcast,160,2013-02-20 23:29:00
4:43 PM,42.8,32.0,66,29.56,10.0,SSE,17.3,-,N/A,,Mostly Cloudy,150,2013-02-20 23:43:00
4:53 PM,43.0,32.0,65,29.56,10.0,SE,17.3,25.3,N/A,,Scattered Clouds,140,2013-02-20 23:53:00
6:04 PM,39.2,32.0,75,29.58,10.0,SE,25.3,32.2,N/A,,Overcast,140,2013-02-21 01:04:00
6:30 PM,37.4,33.8,87,29.58,10.0,SE,21.9,28.8,N/A,,Overcast,130,2013-02-21 01:30:00
6:53 PM,37.0,33.1,86,29.58,10.0,SE,20.7,29.9,N/A,,Overcast,130,2013-02-21 01:53:00
7:53 PM,37.0,30.9,79,29.60,10.0,SSE,19.6,-,N/A,,Overcast,150,2013-02-21 02:53:00
8:53 PM,36.0,30.0,79,29.60,10.0,SE,20.7,27.6,N/A,,Overcast,140,2013-02-21 03:53:00
9:53 PM,35.1,28.9,78,29.61,10.0,SE,17.3,-,N/A,,Overcast,130,2013-02-21 04:53:00
10:53 PM,35.1,28.0,76,29.61,10.0,SE,15.0,-,N/A,,Overcast,140,2013-02-21 05:53:00
11:34 PM,35.6,26.6,70,29.60,10.0,SSE,13.8,-,N/A,,Overcast,160,2013-02-21 06:34:00
11:53 PM,35.1,27.0,72,29.59,10.0,SE,12.7,-,N/A,,Overcast,130,2013-02-21 06:53:00